Location: Karcze
(52.0945°N, 22.4786°E)
Time: 12:37:57
(UTC+00:00)

Okean 3 - Pass Details

Date: 14 July 2020
Orbit: 576 x 601 km, 82.5° (Epoch: 07 August)

Event Time Altitude Azimuth Distance (km) Brightness Sun altitude
Rises 00:11:57 0° 350° (N) 2,806 8.0 -13.3°
Reaches altitude 10° 00:14:09 10° 353° (N) 1,904 7.0 -13.2°
Maximum altitude 00:18:21 73° 78° (ENE) 611 3.6 -13.0°
Enters shadow 00:22:17 12° 163° (SSE) 1,799 5.5 -12.7°
